Weather History for Roanoke, VA

Change the Weather History Date:

Friday, November 14, 2014

  Actual Average Record
Temperature  
Mean Temperature 30 °F 49 °F  
Max Temperature 37 °F 59 °F 82 °F (1993)
Min Temperature 22 °F 38 °F 13 °F (1986)
Degree Days  
Heating Degree Days 35 16  
Month to date heating degree days 233 198  
Since 1 July heating degree days 457 495  
Cooling Degree Days 0 0  
Month to date cooling degree days 0 0  
Year to date cooling degree days 1128 1207  
Moisture  
Dew Point 12 °F    
Average Humidity 48    
Maximum Humidity 60    
Minimum Humidity 35    
Precipitation  
Precipitation T in 0.11 in 1.68 in (1972)
Month to date precipitation 0.39 1.58  
Year to date precipitation 33.76 36.49  
Snow  
Snow T in - - ()
Month to date snowfall T  
Since 1 July snowfall T  
Since 1 September snowfall T  
Snow Depth 0.00 in    
Sea Level Pressure  
Sea Level Pressure 30.26 in    
Wind  
Wind Speed 12 mph (NW)    
Max Wind Speed 20 mph    
Max Gust Speed 26 mph    
Visibility 10 miles    
Events      
T = Trace of Precipitation, MM = Missing Value Source: NWS Daily Summary

Daily Weather History Graph

Daily Weather History Graph

Search for Another Location

Airport:

Trip Planner

Search our weather history database for the weather conditions in past years. The results will help you decide how hot, cold, wet, or windy it might be!

Date:

Astronomy

Nov. 14, 2014 Rise Set
Actual Time 6:58 AM EST 5:10 PM EST
Civil Twilight 6:30 AM EST 5:37 PM EST
Nautical Twilight 5:58 AM EST 6:09 PM EST
Astronomical Twilight 5:27 AM EST 6:40 PM EST
Moon No Moon Rise 12:52 PM EST (11/14)
Length of Visible Light 11h 07m
Length of Day
10h 12m
Waning Gibbous, 49% of the Moon is Illuminated
Nov 14
Waning Gibbous
Nov 22
New
Nov 29
First Quarter
Dec 6
Full
Dec 14
Last Quarter

Hourly Weather History & Observations

Time (EST) Temp. Windchill Dew Point Humidity Pressure Visibility Wind Dir Wind Speed Gust Speed Precip Events Conditions
12:54 AM 34.0 °F 23.8 °F 19.9 °F 56% 30.12 in 10.0 mi NW 16.1 mph - N/A   Overcast
1:54 AM 32.0 °F 23.6 °F 19.0 °F 59% 30.14 in 10.0 mi NW 10.4 mph - N/A   Overcast
2:54 AM 30.9 °F 20.2 °F 16.0 °F 54% 30.15 in 10.0 mi NW 15.0 mph 23.0 mph N/A   Overcast
3:54 AM 30.0 °F 19.5 °F 12.9 °F 49% 30.17 in 10.0 mi NW 13.8 mph - N/A   Scattered Clouds
4:54 AM 28.0 °F 16.1 °F 12.9 °F 53% 30.19 in 10.0 mi NNW 16.1 mph - N/A   Mostly Cloudy
5:54 AM 27.0 °F 19.5 °F 12.0 °F 53% 30.20 in 10.0 mi NW 6.9 mph - N/A   Mostly Cloudy
6:54 AM 28.0 °F 16.1 °F 12.0 °F 51% 30.22 in 10.0 mi NNW 16.1 mph 23.0 mph N/A   Mostly Cloudy
7:54 AM 28.0 °F 16.5 °F 12.0 °F 51% 30.24 in 10.0 mi NNW 15.0 mph - N/A   Mostly Cloudy
8:54 AM 30.0 °F 20.0 °F 10.9 °F 45% 30.26 in 10.0 mi NW 12.7 mph - N/A   Mostly Cloudy
9:54 AM 30.9 °F 21.7 °F 10.9 °F 43% 30.28 in 10.0 mi NW 11.5 mph - N/A   Mostly Cloudy
10:54 AM 32.0 °F 22.5 °F 12.9 °F 45% 30.28 in 10.0 mi North 12.7 mph - N/A   Scattered Clouds
11:54 AM 34.0 °F 26.6 °F 12.9 °F 42% 30.26 in 10.0 mi NNW 9.2 mph 19.6 mph 0.01 in   Scattered Clouds
12:54 PM 34.0 °F 25.5 °F 10.9 °F 38% 30.24 in 10.0 mi WNW 11.5 mph - N/A   Partly Cloudy
1:54 PM 35.1 °F 26.9 °F 10.9 °F 37% 30.23 in 10.0 mi NNW 11.5 mph - N/A   Scattered Clouds
2:54 PM 35.1 °F 24.5 °F 12.0 °F 39% 30.24 in 10.0 mi NNW 18.4 mph - N/A   Scattered Clouds
3:54 PM 33.1 °F 23.4 °F 10.9 °F 40% 30.25 in 10.0 mi WNW 13.8 mph - N/A   Scattered Clouds
4:54 PM 30.0 °F 19.1 °F 10.9 °F 45% 30.28 in 10.0 mi NW 15.0 mph - N/A   Partly Cloudy
5:54 PM 28.0 °F 20.0 °F 10.0 °F 47% 30.32 in 10.0 mi NNW 8.1 mph - N/A   Partly Cloudy
6:54 PM 28.0 °F 18.1 °F 10.0 °F 47% 30.34 in 10.0 mi NNW 11.5 mph - N/A   Clear
7:54 PM 26.1 °F 17.6 °F 10.9 °F 53% 30.35 in 10.0 mi NNW 8.1 mph - N/A   Clear
8:54 PM 26.1 °F 18.4 °F 10.9 °F 53% 30.38 in 10.0 mi NW 6.9 mph - N/A   Clear
9:54 PM 25.0 °F 16.3 °F 12.0 °F 58% 30.38 in 10.0 mi NNW 8.1 mph - N/A   Clear
10:54 PM 24.1 °F 15.2 °F 10.9 °F 57% 30.38 in 10.0 mi NW 8.1 mph - N/A   Clear
11:54 PM 23.0 °F 13.9 °F 10.9 °F 60% 30.39 in 10.0 mi NNW 8.1 mph - N/A   Clear